Weather History for KSTP - February, 2014

Change the Weather History Date:

Thursday, February 13, 2014

  Actual Average Record
Temperature  
Mean Temperature 19 °F -  
Max Temperature 30 °F 28 °F 46 °F (2011)
Min Temperature 6 °F 13 °F 1 °F (1997)
Degree Days  
Heating Degree Days 46    
Moisture  
Dew Point 12 °F    
Average Humidity 76    
Maximum Humidity 88    
Minimum Humidity 65    
Precipitation  
Precipitation 0.00 in - - ()
Sea Level Pressure  
Sea Level Pressure 29.61 in    
Wind  
Wind Speed 15 mph (SW)    
Max Wind Speed 23 mph    
Max Gust Speed 32 mph    
Visibility 8 miles    
Events Snow    
Averages and records for this station are not official NWS values.
T = Trace of Precipitation, MM = Missing Value Source: NWS Daily Summary

Daily Weather History Graph

Daily Weather History Graph

Search for Another Location

Airport or City:

Trip Planner

Search our weather history database for the weather conditions in past years. The results will help you decide how hot, cold, wet, or windy it might be!

Date:

Astronomy

Feb. 13, 2014 Rise Set
Actual Time 7:15 AM CST 5:37 PM CST
Civil Twilight 6:45 AM CST 6:07 PM CST
Nautical Twilight 6:11 AM CST 6:42 PM CST
Astronomical Twilight 5:37 AM CST 7:16 PM CST
Moon 4:46 PM CST (2/13) 6:10 AM CST (2/13)
Length of Visible Light 11h 22m
Length of Day
10h 21m
Waxing Gibbous, 99% of the Moon is Illuminated
Feb 13
Waxing Gibbous
Feb 14
Full
Feb 22
Last Quarter
Mar 1
New
Mar 8
First Quarter

Hourly Weather History & Observations

Time (CST) Temp. Windchill Dew Point Humidity Pressure Visibility Wind Dir Wind Speed Gust Speed Precip Events Conditions
12:53 AM 15.1 °F -0.1 °F 10.0 °F 80% 29.83 in - SSE 15.0 mph - N/A   Mostly Cloudy
1:10 AM 15.1 °F 1.1 °F 10.0 °F 80% 29.77 in - SSE 12.7 mph - N/A   Mostly Cloudy
1:53 AM 15.1 °F -1.1 °F 10.0 °F 80% 29.75 in - SE 17.3 mph - N/A   Overcast
2:53 AM 15.1 °F - 10.9 °F 84% 29.70 in - North - - 0.00 in Snow Light Snow
3:53 AM 16.0 °F 1.1 °F 12.0 °F 84% 29.62 in - SE 15.0 mph - 0.00 in Snow Light Snow
4:16 AM 17.1 °F 0.1 °F 14.0 °F 88% 29.56 in - SSE 20.7 mph 27.6 mph 0.00 in Snow Light Snow
4:50 AM 19.4 °F 5.5 °F 14.0 °F 80% 29.57 in - SSE 15.0 mph - 0.00 in   Overcast
4:53 AM 19.0 °F 4.0 °F 14.0 °F 81% 29.59 in - SSE 17.3 mph - 0.00 in   Overcast
5:09 AM 19.0 °F 5.0 °F 15.1 °F 85% 29.55 in - SSE 15.0 mph - 0.00 in Snow Light Snow
5:53 AM 19.9 °F 6.7 °F 16.0 °F 85% 29.55 in - SSE 13.8 mph - 0.00 in   Overcast
6:13 AM 21.0 °F 7.1 °F 16.0 °F 81% 29.51 in - SSE 16.1 mph - N/A   Overcast
6:53 AM 21.0 °F 9.3 °F 16.0 °F 81% 29.52 in - SSE 11.5 mph - N/A   Overcast
7:43 AM 23.0 °F 12.4 °F 18.0 °F 81% 29.47 in 7.0 mi SSE 10.4 mph - N/A   Overcast
7:53 AM 23.0 °F 12.4 °F 18.0 °F 81% 29.50 in 6.0 mi SE 10.4 mph - N/A   Haze
8:53 AM 24.1 °F 16.0 °F 19.0 °F 81% 29.48 in 6.0 mi SE 6.9 mph - N/A   Haze
9:53 AM 27.0 °F 20.5 °F 21.9 °F 81% 29.47 in - SSE 5.8 mph - N/A   Overcast
10:13 AM 30.0 °F 17.5 °F 23.0 °F 75% 29.45 in - West 19.6 mph 26.5 mph N/A   Overcast
10:27 AM 28.0 °F 15.3 °F 19.9 °F 72% 29.46 in - West 18.4 mph 29.9 mph N/A   Overcast
10:53 AM 27.0 °F 12.8 °F 19.0 °F 72% 29.50 in - West 21.9 mph - N/A   Overcast
11:53 AM 21.9 °F 5.8 °F 14.0 °F 72% 29.52 in 7.0 mi West 23.0 mph 31.1 mph 0.00 in Snow Light Snow
12:53 PM 19.9 °F 3.2 °F 12.9 °F 74% 29.53 in - West 23.0 mph - 0.00 in Snow Light Snow
1:53 PM 19.0 °F 2.4 °F 10.9 °F 71% 29.56 in 8.0 mi West 21.9 mph 32.2 mph 0.00 in   Overcast
2:53 PM 19.9 °F 4.3 °F 10.9 °F 68% 29.59 in 8.0 mi West 19.6 mph - N/A   Overcast
3:53 PM 19.0 °F 2.0 °F 10.0 °F 68% 29.63 in 7.0 mi WNW 23.0 mph - N/A   Scattered Clouds
4:53 PM 18.0 °F 0.9 °F 8.1 °F 65% 29.66 in 8.0 mi WNW 21.9 mph 27.6 mph N/A   Mostly Cloudy
5:53 PM 16.0 °F -0.4 °F 7.0 °F 68% 29.70 in 10.0 mi WNW 18.4 mph - N/A   Partly Cloudy
6:53 PM 14.0 °F -1.4 °F 5.0 °F 67% 29.73 in - West 15.0 mph - N/A   Clear
7:53 PM 12.9 °F -1.6 °F 3.9 °F 67% 29.73 in 10.0 mi WNW 12.7 mph - N/A   Clear
8:53 PM 10.9 °F -2.6 °F 3.0 °F 70% 29.76 in - West 10.4 mph - N/A   Clear
9:53 PM 10.0 °F -2.9 °F 1.0 °F 67% 29.76 in - WNW 9.2 mph - N/A   Clear
10:53 PM 8.1 °F -6.2 °F -0.0 °F 70% 29.78 in - WNW 10.4 mph - N/A   Clear
11:53 PM 6.1 °F -6.8 °F -0.9 °F 73% 29.78 in - NW 8.1 mph - N/A   Clear